Regional Weather Roundup
Issued by NWS

Home | Current Version | Previous Version | Graphics & Text | Print | Product List | Glossary On
Versions: 1 2 3 4 5 6 7 8 9 10 11 12 13 14 15 16 17 18 19 20 21 22 23 24 25 26 27 28 29 30 31 32 33 34 35 36 37 38 39 40 41 42 43 44 45 46 47 48 49 50
000
ASUS43 KIND 231259
RWRIN

WEATHER ROUNDUP FOR INDIANA
NATIONAL WEATHER SERVICE INDIANAPOLIS IN
900 AM EDT TUE MAY 23 2017

NOTE: "FAIR" INDICATES FEW OR NO CLOUDS BELOW 12,000 FEET WITH NO
SIGNIFICANT WEATHER AND/OR OBSTRUCTIONS TO VISIBILITY.

* - STATION DOES NOT REPORT WEATHER SUCH AS PRECIPITATION OR FOG.

+ - STATION NOT QUALITY CONTROLLED BY THE NATIONAL WEATHER SERVICE.
    USE DATA WITH CAUTION...ESPECIALLY DEWPOINT AND RELATIVE
    HUMIDITY OBSERVATIONS.

INZ001>003-010>013-019-020-231400-
NORTHWEST INDIANA

CITY           SKY/WX    TMP DP  RH WIND       PRES   REMARKS
GARY /AIRPORT/ CLOUDY    63  52  67 SW5       29.84S
MICHIGAN CITY+ CLOUDY    59  54  82 S3        29.84S
MONTICELLO +   PTSUNNY   60  52  76 SE3       29.85S
RENSSELAER +   CLOUDY    59  55  88 SE5       29.84F

$$

LMZ046-743>745-231400-
SOUTHERN LAKE MICHIGAN

STATION/POSITION TIME  TEMP    WIND        PRES    WAVE
                       AIR SEA DIR/SP/G            HT
                 (UTC) (F)     (DEG/KT/KT) (MB)    (FT)
BURNS HARBOR     1240   61     190/  6/ 11 1010.5F
MICHIGAN CITY    1230   60     170/ 10/ 11   N/A
5NW MICH CITY    1230   56 53  200/  6/  8   N/A     1

$$

INZ004-005-014>016-021>024-231400-
NORTH CENTRAL INDIANA

CITY           SKY/WX    TMP DP  RH WIND       PRES   REMARKS
ELKHART        LGT RAIN  61  52  72 S7        29.85S
GOSHEN         CLOUDY    61  51  70 S6        29.86S
SOUTH BEND     LGT RAIN  58  54  86 S7        29.86S

$$

INZ006>009-017-018-025>027-231400-
NORTHEAST INDIANA

CITY           SKY/WX    TMP DP  RH WIND       PRES   REMARKS
ANGOLA *+      SUNNY     61  52  72 S5        29.87S
FORT WAYNE     PTSUNNY   61  50  67 CALM      29.88S
KENDALLVILLE + CLOUDY    61  51  69 SW6       29.88S

$$

INZ028-029-035-036-043>045-051>053-231400-
WEST CENTRAL INDIANA

CITY           SKY/WX    TMP DP  RH WIND       PRES   REMARKS
GREENCASTLE +  MOSUNNY   59  50  72 SE3       29.85F
LAFAYETTE      CLOUDY    60  53  77 SE5       29.85F
TERRE HAUTE    CLOUDY    60  50  69 E3        29.84F

$$

INZ030>032-037>040-046>048-054>057-064-065-231400-
CENTRAL INDIANA

CITY           SKY/WX    TMP DP  RH WIND       PRES   REMARKS
COLUMBUS       MOSUNNY   59  48  67 E6        29.86F
INDIANAPOLIS   CLOUDY    60  51  72 E3        29.85F
-EAGLE CREEK   CLOUDY    61  49  64 SE5       29.85F
KOKOMO +       CLOUDY    60  52  74 SW3       29.88S
SHELBYVILLE    MOSUNNY   62  49  62 SE5       29.84F

$$

INZ033-034-041-042-049-050-058-059-231400-
EAST CENTRAL INDIANA

CITY           SKY/WX    TMP DP  RH WIND       PRES   REMARKS
MUNCIE         CLOUDY    64  46  52 S9        29.87F
RICHMOND +     SUNNY     59  50  72 SE7       29.89F

$$

INZ060-061-067>069-081>083-085>088-231400-
SOUTHWEST INDIANA

CITY           SKY/WX    TMP DP  RH WIND       PRES   REMARKS
EVANSVILLE     CLOUDY    64  54  69 E3        29.84S
HUNTINGBURG *+ CLOUDY    62  54  74 E3        29.84S

$$

INZ062-063-066-070>080-084-089>092-231400-
SOUTH CENTRAL AND SOUTHEAST INDIANA

CITY           SKY/WX    TMP DP  RH WIND       PRES   REMARKS
BLOOMINGTON    PTSUNNY   61  50  67 SE6       29.84F
MADISON *+     MOSUNNY   61  52  72 E6        29.87F
SEYMOUR +      MOSUNNY   63  52  67 E5        29.84F

$$




USA.gov is the U.S. government's official web portal to all federal, state and local government web resources and services.